TAP35MT LPPR-LPPT

Flight info

Callsign TAP35MT
Flight time 0h 39m
Altitude 33000
Route MANIK DCT ABRIL DCT XAMAX
Aircraft A320/M-SDE3FGHIRWY/LB1

Departure

Time 2026-05-03 23:22
Airport Francisco de Sá Carneiro Airport (LPPR)

Arrival

Time 2026-05-04 00:02
Airport Lisbon Humberto Delgado Airport (LPPT)
Time Latitude Longitude Altitude Speed Heading
2026-05-03 23:07 41.23832 -8.67378 245 ft 0 kts 78°
2026-05-03 23:15 41.23832 -8.67379 245 ft 1 kts 78°
2026-05-03 23:15 41.23829 -8.67399 244 ft 3 kts 82°
2026-05-03 23:15 41.23827 -8.67425 242 ft 3 kts 90°
2026-05-03 23:15 41.23828 -8.67452 241 ft 3 kts 105°
2026-05-03 23:16 41.23835 -8.67474 239 ft 3 kts 142°
2026-05-03 23:16 41.23845 -8.67481 239 ft 1 kts 169°
2026-05-03 23:16 41.23848 -8.67482 239 ft 0 kts 169°
2026-05-03 23:18 41.23838 -8.67479 239 ft 4 kts 169°
2026-05-03 23:19 41.23797 -8.67469 239 ft 9 kts 169°
2026-05-03 23:19 41.23720 -8.67450 238 ft 13 kts 169°
2026-05-03 23:19 41.23632 -8.67486 238 ft 17 kts 245°
2026-05-03 23:19 41.23613 -8.67605 233 ft 6 kts 259°
2026-05-03 23:20 41.23613 -8.67610 233 ft 0 kts 259°
2026-05-03 23:20 41.23612 -8.67616 233 ft 1 kts 259°
2026-05-03 23:20 41.23608 -8.67642 233 ft 4 kts 259°
2026-05-03 23:20 41.23601 -8.67691 235 ft 6 kts 258°
2026-05-03 23:21 41.23591 -8.67759 233 ft 8 kts 265°
2026-05-03 23:21 41.23633 -8.67817 232 ft 11 kts 346°
2026-05-03 23:21 41.23728 -8.67842 228 ft 18 kts 348°
2026-05-03 23:21 41.24088 -8.67936 216 ft 91 kts 349°
2026-05-03 23:22 41.26041 -8.68437 618 ft 165 kts 349°
2026-05-03 23:22 41.27189 -8.68714 1262 ft 170 kts 349°
2026-05-03 23:22 41.28383 -8.69023 1824 ft 183 kts 348°
2026-05-03 23:23 41.29711 -8.69380 2167 ft 207 kts 348°
2026-05-03 23:23 41.31214 -8.69785 2575 ft 232 kts 348°
2026-05-03 23:23 41.32869 -8.70228 3228 ft 249 kts 348°
2026-05-03 23:23 41.34590 -8.70686 4178 ft 255 kts 347°
2026-05-03 23:24 41.36345 -8.71152 5172 ft 259 kts 347°
2026-05-03 23:24 41.38126 -8.71621 6140 ft 263 kts 347°
2026-05-03 23:24 41.39843 -8.72443 7045 ft 264 kts 326°
2026-05-03 23:24 41.41129 -8.74183 7945 ft 267 kts 300°
2026-05-03 23:25 41.41704 -8.76532 8835 ft 272 kts 275°
2026-05-03 23:25 41.41508 -8.79044 9780 ft 275 kts 259°
2026-05-03 23:25 41.40933 -8.81497 10531 ft 286 kts 243°
2026-05-03 23:25 41.39581 -8.83575 10824 ft 314 kts 216°
2026-05-03 23:26 41.37508 -8.84668 11071 ft 342 kts 189°
2026-05-03 23:26 41.35036 -8.84460 11480 ft 360 kts 172°
2026-05-03 23:26 41.32551 -8.83846 12192 ft 366 kts 170°
2026-05-03 23:26 41.30081 -8.83160 12956 ft 369 kts 170°
2026-05-03 23:27 41.27564 -8.82437 13728 ft 372 kts 170°
2026-05-03 23:27 41.25022 -8.81713 14421 ft 375 kts 171°
2026-05-03 23:27 41.22457 -8.81005 15074 ft 378 kts 171°
2026-05-03 23:27 41.19864 -8.80308 15735 ft 381 kts 171°
2026-05-03 23:28 41.17252 -8.79617 16396 ft 384 kts 172°
2026-05-03 23:28 41.14615 -8.78926 17049 ft 388 kts 172°
2026-05-03 23:28 41.11955 -8.78232 17700 ft 391 kts 172°
2026-05-03 23:28 41.09271 -8.77528 18340 ft 395 kts 172°
2026-05-03 23:29 41.06568 -8.76814 18908 ft 398 kts 171°
2026-05-03 23:29 41.03882 -8.75821 19463 ft 403 kts 166°
2026-05-03 23:29 41.01192 -8.74709 20002 ft 406 kts 166°
2026-05-03 23:29 40.98490 -8.73596 20560 ft 408 kts 166°
2026-05-03 23:30 40.95768 -8.72478 21099 ft 410 kts 167°
2026-05-03 23:30 40.93034 -8.71358 21633 ft 412 kts 167°
2026-05-03 23:30 40.90297 -8.70235 22200 ft 413 kts 167°
2026-05-03 23:30 40.87545 -8.69108 22712 ft 415 kts 168°
2026-05-03 23:31 40.84778 -8.67979 23023 ft 416 kts 168°
2026-05-03 23:31 40.81985 -8.66841 23079 ft 426 kts 168°
2026-05-03 23:31 40.79113 -8.65675 23067 ft 436 kts 168°
2026-05-03 23:31 40.76206 -8.64491 23079 ft 439 kts 168°
2026-05-03 23:32 40.73285 -8.63296 23073 ft 439 kts 168°
2026-05-03 23:32 40.70362 -8.62124 23074 ft 438 kts 170°
2026-05-03 23:32 40.67386 -8.61394 23079 ft 432 kts 179°
2026-05-03 23:32 40.64432 -8.61036 23079 ft 431 kts 180°
2026-05-03 23:33 40.61444 -8.60679 23081 ft 431 kts 179°
2026-05-03 23:33 40.58452 -8.60316 23054 ft 431 kts 180°
2026-05-03 23:33 40.55464 -8.59953 23080 ft 431 kts 180°
2026-05-03 23:33 40.52478 -8.59591 23082 ft 431 kts 180°
2026-05-03 23:34 40.49486 -8.59229 23088 ft 431 kts 180°
2026-05-03 23:34 40.46500 -8.58869 23087 ft 431 kts 180°
2026-05-03 23:34 40.43516 -8.58507 23087 ft 431 kts 180°
2026-05-03 23:34 40.40528 -8.58145 23089 ft 431 kts 180°
2026-05-03 23:35 40.37545 -8.57784 23085 ft 431 kts 180°
2026-05-03 23:35 40.34561 -8.57425 23094 ft 431 kts 180°
2026-05-03 23:35 40.31562 -8.57066 22939 ft 435 kts 180°
2026-05-03 23:35 40.28547 -8.56702 22664 ft 435 kts 179°
2026-05-03 23:36 40.25537 -8.56332 22397 ft 435 kts 179°
2026-05-03 23:36 40.22530 -8.55965 22131 ft 433 kts 180°
2026-05-03 23:36 40.19559 -8.56111 21863 ft 423 kts 194°
2026-05-03 23:36 40.16786 -8.57250 21601 ft 415 kts 207°
2026-05-03 23:37 40.14183 -8.58884 21323 ft 414 kts 209°
2026-05-03 23:37 40.11603 -8.60532 21062 ft 412 kts 209°
2026-05-03 23:37 40.09032 -8.62187 20809 ft 412 kts 209°
2026-05-03 23:37 40.06461 -8.63840 20548 ft 411 kts 209°
2026-05-03 23:38 40.03899 -8.65479 20292 ft 410 kts 208°
2026-05-03 23:38 40.01335 -8.67114 20044 ft 409 kts 208°
2026-05-03 23:38 39.98783 -8.68738 19794 ft 408 kts 208°
2026-05-03 23:38 39.96227 -8.70362 19545 ft 408 kts 208°
2026-05-03 23:39 39.93679 -8.71979 19302 ft 407 kts 208°
2026-05-03 23:39 39.91128 -8.73596 19049 ft 408 kts 208°
2026-05-03 23:39 39.88578 -8.75211 18808 ft 407 kts 208°
2026-05-03 23:39 39.86035 -8.76819 18568 ft 407 kts 208°
2026-05-03 23:40 39.83493 -8.78426 18324 ft 406 kts 208°
2026-05-03 23:40 39.80952 -8.80028 18055 ft 405 kts 208°
2026-05-03 23:40 39.78417 -8.81626 17781 ft 404 kts 208°
2026-05-03 23:40 39.75892 -8.83219 17516 ft 403 kts 208°
2026-05-03 23:41 39.73373 -8.84807 17250 ft 402 kts 208°
2026-05-03 23:41 39.70861 -8.86390 16989 ft 401 kts 208°
2026-05-03 23:41 39.68351 -8.87972 16711 ft 399 kts 208°
2026-05-03 23:41 39.65863 -8.89539 16457 ft 396 kts 208°
2026-05-03 23:42 39.63418 -8.91079 16204 ft 395 kts 208°
2026-05-03 23:42 39.60951 -8.92631 15952 ft 394 kts 208°
2026-05-03 23:42 39.58478 -8.94186 15705 ft 393 kts 208°
2026-05-03 23:42 39.56020 -8.95730 15457 ft 393 kts 208°
2026-05-03 23:43 39.53562 -8.97271 15213 ft 392 kts 208°
2026-05-03 23:43 39.51111 -8.98806 14969 ft 391 kts 208°
2026-05-03 23:43 39.48661 -9.00337 14724 ft 390 kts 208°
2026-05-03 23:43 39.46218 -9.01867 14486 ft 390 kts 208°
2026-05-03 23:44 39.43781 -9.03391 14241 ft 389 kts 208°
2026-05-03 23:44 39.41347 -9.04910 13998 ft 388 kts 208°
2026-05-03 23:44 39.38912 -9.06432 13744 ft 387 kts 208°
2026-05-03 23:44 39.36486 -9.07943 13477 ft 386 kts 208°
2026-05-03 23:45 39.34067 -9.09446 13212 ft 386 kts 208°
2026-05-03 23:45 39.31645 -9.10951 12947 ft 386 kts 208°
2026-05-03 23:45 39.29222 -9.12458 12685 ft 385 kts 208°
2026-05-03 23:45 39.26814 -9.13953 12425 ft 384 kts 208°
2026-05-03 23:46 39.24412 -9.15444 12170 ft 383 kts 208°
2026-05-03 23:46 39.22032 -9.16921 11909 ft 373 kts 208°
2026-05-03 23:46 39.19767 -9.18325 11654 ft 358 kts 208°
2026-05-03 23:46 39.17563 -9.19688 11404 ft 345 kts 208°
2026-05-03 23:47 39.15436 -9.21003 11174 ft 332 kts 208°
2026-05-03 23:47 39.13399 -9.22261 11078 ft 317 kts 208°
2026-05-03 23:47 39.11462 -9.23455 11094 ft 300 kts 208°
2026-05-03 23:47 39.09622 -9.24589 11006 ft 290 kts 208°
2026-05-03 23:48 39.07823 -9.25702 10765 ft 284 kts 208°
2026-05-03 23:48 39.06057 -9.26794 10518 ft 279 kts 208°
2026-05-03 23:48 39.04321 -9.27869 10249 ft 275 kts 208°
2026-05-03 23:48 39.02606 -9.28931 9936 ft 273 kts 208°
2026-05-03 23:49 39.00902 -9.29984 9587 ft 271 kts 208°
2026-05-03 23:49 38.99214 -9.31026 9241 ft 268 kts 208°
2026-05-03 23:49 38.97536 -9.32060 8895 ft 266 kts 208°
2026-05-03 23:49 38.95869 -9.33085 8560 ft 264 kts 208°
2026-05-03 23:50 38.94170 -9.33976 8166 ft 266 kts 195°
2026-05-03 23:50 38.92950 -9.34125 7915 ft 268 kts 181°
2026-05-03 23:50 38.90462 -9.33957 7482 ft 264 kts 179°
2026-05-03 23:50 38.88645 -9.33815 7232 ft 259 kts 179°
2026-05-03 23:51 38.86867 -9.33673 6989 ft 254 kts 179°
2026-05-03 23:51 38.85125 -9.33535 6744 ft 249 kts 179°
2026-05-03 23:51 38.83399 -9.33400 6499 ft 248 kts 179°
2026-05-03 23:51 38.81681 -9.33267 6241 ft 247 kts 179°
2026-05-03 23:52 38.79970 -9.33135 5979 ft 246 kts 179°
2026-05-03 23:52 38.78258 -9.33003 5719 ft 246 kts 179°
2026-05-03 23:52 38.76546 -9.32871 5463 ft 245 kts 179°
2026-05-03 23:52 38.74845 -9.32740 5204 ft 245 kts 179°
2026-05-03 23:53 38.73147 -9.32610 4955 ft 243 kts 179°
2026-05-03 23:53 38.71463 -9.32483 4764 ft 241 kts 179°
2026-05-03 23:53 38.69801 -9.32357 4710 ft 235 kts 179°
2026-05-03 23:53 38.68187 -9.32231 4657 ft 231 kts 179°
2026-05-03 23:54 38.66586 -9.32105 4605 ft 231 kts 179°
2026-05-03 23:54 38.64984 -9.31980 4553 ft 231 kts 179°
2026-05-03 23:54 38.63383 -9.31857 4501 ft 230 kts 179°
2026-05-03 23:54 38.61816 -9.31738 4433 ft 222 kts 179°
2026-05-03 23:55 38.60283 -9.31624 4394 ft 220 kts 179°
2026-05-03 23:55 38.58759 -9.31513 4341 ft 217 kts 179°
2026-05-03 23:55 38.57275 -9.31403 4262 ft 212 kts 179°
2026-05-03 23:55 38.56306 -9.31266 4169 ft 213 kts 167°
2026-05-03 23:56 38.55087 -9.30248 4075 ft 213 kts 124°
2026-05-03 23:56 38.54646 -9.28506 4253 ft 213 kts 89°
2026-05-03 23:56 38.55319 -9.26292 4072 ft 201 kts 39°
2026-05-03 23:56 38.56096 -9.25639 3995 ft 197 kts 22°
2026-05-03 23:57 38.57316 -9.24834 3864 ft 197 kts 24°
2026-05-03 23:57 38.58544 -9.24075 3735 ft 196 kts 21°
2026-05-03 23:57 38.59792 -9.23382 3628 ft 195 kts 19°
2026-05-03 23:57 38.61043 -9.22710 3469 ft 195 kts 19°
2026-05-03 23:58 38.62291 -9.22045 3368 ft 195 kts 19°
2026-05-03 23:58 38.63529 -9.21385 3193 ft 190 kts 19°
2026-05-03 23:58 38.64730 -9.20746 2911 ft 187 kts 19°
2026-05-03 23:58 38.65922 -9.20111 2659 ft 184 kts 19°
2026-05-03 23:59 38.67086 -9.19490 2422 ft 180 kts 19°
2026-05-03 23:59 38.68236 -9.18878 2161 ft 177 kts 19°
2026-05-03 23:59 38.69343 -9.18286 1921 ft 166 kts 19°
2026-05-03 23:59 38.70370 -9.17738 1709 ft 155 kts 19°
2026-05-04 00:00 38.71331 -9.17225 1487 ft 145 kts 19°
2026-05-04 00:00 38.72242 -9.16739 1307 ft 139 kts 18°
2026-05-04 00:00 38.73125 -9.16268 1121 ft 136 kts 18°
2026-05-04 00:00 38.73994 -9.15804 937 ft 135 kts 19°
2026-05-04 00:01 38.74876 -9.15334 754 ft 138 kts 19°
2026-05-04 00:01 38.75763 -9.14858 566 ft 141 kts 20°
2026-05-04 00:01 38.76663 -9.14374 364 ft 139 kts 20°
2026-05-04 00:01 38.77448 -9.13962 363 ft 92 kts 22°
2026-05-04 00:02 38.77835 -9.13753 364 ft 48 kts 22°
2026-05-04 00:02 38.78125 -9.13598 370 ft 42 kts 22°
2026-05-04 00:02 38.78322 -9.13422 364 ft 33 kts 45°
2026-05-04 00:02 38.78341 -9.13262 360 ft 17 kts 172°
2026-05-04 00:03 38.78228 -9.13313 359 ft 18 kts 202°
2026-05-04 00:03 38.78111 -9.13373 360 ft 19 kts 201°
2026-05-04 00:03 38.77984 -9.13407 355 ft 20 kts 169°
2026-05-04 00:03 38.77833 -9.13364 347 ft 24 kts 168°
2026-05-04 00:04 38.77652 -9.13320 335 ft 28 kts 177°
2026-05-04 00:04 38.77458 -9.13286 338 ft 28 kts 168°
2026-05-04 00:04 38.77272 -9.13246 338 ft 15 kts 168°
2026-05-04 00:04 38.77251 -9.13170 334 ft 7 kts 77°
2026-05-04 00:05 38.77255 -9.13148 336 ft 0 kts 77°
2026-05-04 00:05 38.77255 -9.13147 336 ft 0 kts 77°